Preview of NWS' New Version of Forecast
This preview is not operational and should not be used for support decisions.
Latest weather observations around

Amarillo, Amarillo International Airport (KAMA)

Using English Units (Switch to International System of Units)
Date/ Time (CDT) Wind (mph) Vis. (mi) Weather Sky Cond. Temp (°F) Rel. Humidity Wind Chill (°F) Heat Index (°F) Pressure Precip. (in)
Air Dwpt 6 hour Altimeter (inHg) Sea level (inHg) 1 hr 3 hr 6 hr
Max Min
Jun 19 02:07 ENE 13 10 Partly Cloudy SCT029 63 55     75%     29.96        
Jun 19 01:53 ENE 11 10 Mostly Cloudy BKN028 64 55     73%     29.96 29.81      
Jun 19 01:18 NE 10 10 Mostly Cloudy BKN027 64 55     73%     29.95        
Jun 19 00:53 ENE 10 10 Clear CLR 64 54     70%     29.93 29.78      
Jun 18 23:53 NNE 11 10 Clear CLR 65 55     70%     29.95 29.81      
Jun 18 22:53 E 11 10 Clear CLR 66 53     63%     29.89 29.75      
Jun 18 21:53 NE 15 10 Clear CLR 69 56     63%     29.89 29.75      
Jun 18 20:53   10 Clear CLR 77 54     45%   77 29.84 29.7      
Jun 18 19:53 S 14 10 Mostly Clear FEW120 82 53     37%   81 29.85 29.7      
Jun 18 19:41   10 Clear CLR 83 54     37%   82 29.86        
Jun 18 19:13 SSE 11 10 Clear CLR 84 60     44%   84 29.85        
Jun 18 18:53 S 14 10 Clear CLR 83 59     44%   83 29.86 29.72      
Jun 18 17:53 SSW 16 10 Clear CLR 84 58     41%   83 29.89 29.74      
Jun 18 16:53 S 16 10 Clear CLR 87 59     39%   86 29.9 29.74      
Jun 18 15:53 S 8 10 Mostly Clear FEW065 85 58     40%   84 29.94 29.79      
Jun 18 14:53 SW 15 10 Clear CLR 84 58     41%   83 29.97 29.82      
Jun 18 13:53 SW 14 10 Clear CLR 82 59     46%   82 29.99 29.85      
Jun 18 12:53 WSW 15 10 Clear CLR 81 58     45%   81 30.01 29.86      
Jun 18 11:53 WSW 14 10 Clear CLR 78 57     48%   78 30.02 29.88      
Jun 18 10:53 3 10 Clear CLR 74 57     56%   74 30.03 29.9      
Jun 18 09:53 WSW 5 10 Clear CLR 71 55     57%   71 30.04 29.9      
Jun 18 08:53 5 10 Clear CLR 67 56     68%     30.03 29.89      
Jun 18 07:53 NW 5 10 Clear CLR 63 56     78%     30 29.86      
Jun 18 06:53 NW 10 10 Clear CLR 59 54     83%     30 29.86     0
Jun 18 05:53 WNW 8 10 Clear CLR 59 53     81%     29.98 29.85      
Jun 18 04:53 SSW 10 10 Clear CLR 62 53     72%     29.96 29.81      
Jun 18 03:53 SSW 13 10 Clear CLR 63 53     70%     29.97 29.82   0  
Jun 18 02:53 S 15 10 Clear CLR 64 54     70%     29.98 29.83      
Jun 18 01:53 SSW 13 10 Mostly Cloudy FEW100 BKN120 62 57     84%     30.01 29.87 0    
Jun 18 00:53 SE 14 10 Clear CLR 65 54     68%     29.99 29.85 0   0
Jun 17 23:53   10 Light Rain OVC100 66 55     68%     30.07 29.93 0    
Jun 17 22:53 WNW 17 10 Clear CLR 66 54     65%     30.11 29.97      
Jun 17 22:43   10 Mostly Clear FEW034 66 54     65%     30.1        
Jun 17 22:26   8 Partly Cloudy SCT036 68 53     59%     30.07        
Jun 17 21:53   10 Clear CLR 72 53     51%   71 30 29.86      
Jun 17 20:53 SE 16 10 Clear CLR 73 53     50%   72 29.94 29.81      
Jun 17 19:53 ESE 16 10 Clear CLR 76 51     42%   75 29.94 29.8      
Jun 17 18:53 SE 18 10 Clear CLR 79 51     38%   78 29.94 29.8      
Jun 17 17:53 SE 17 10 Clear CLR 81 50     34%   80 29.96 29.82      
Jun 17 16:53   10 Clear CLR 82 50     33%   81 29.98 29.83      
Jun 17 15:53 SSE 15 10 Clear CLR 82 51     34%   81 30 29.87      
Jun 17 14:53 SSE 10 10 Clear CLR 82 52     35%   81 30.03 29.88      
Jun 17 13:53 SSE 8 10 Clear CLR 80 56     44%   80 30.05 29.91      
Jun 17 12:53 SSW 7 10 Mostly Clear FEW046 78 55     45%   78 30.07 29.93      
Jun 17 11:53 S 8 10 Mostly Clear FEW036 76 56     50%   76 30.07 29.93      
Jun 17 10:53 S 6 10 Mostly Clear FEW120 73 60     64%   73 30.08 29.94      
Jun 17 09:53 S 9 10 Mostly Cloudy BKN110 71 60     68%   71 30.07 29.94      
Jun 17 08:53 S 9 10 Clear CLR 67 61     81%     30.05 29.92      
Jun 17 07:53 SW 9 7 Mostly Clear FEW120 61 58     90%     30.05 29.92      
Jun 17 06:53 S 8 10 Clear CLR 60 58     93%     30.02 29.89      
Jun 17 05:53 SE 7 10 Clear CLR 59 56     90%     30.01 29.88      
Jun 17 04:53 SSE 7 10 Clear CLR 59 57     93%     30.01 29.88      
Jun 17 03:53 SSE 3 10 Clear CLR 57 56     96%     30.01 29.89      
Jun 17 02:53 SE 3 10 Clear CLR 61 58     90%     30.01 29.89      
Jun 17 01:53 ESE 7 10 Clear CLR 61 58     90%     30.02 29.9      
Jun 17 00:53 ESE 8 10 Clear   62 59     90%     30.02 29.89      
Jun 16 23:53 ESE 9 10 Clear CLR 63 59     87%     30.02 29.9      
Jun 16 22:53 ESE 7 10 Clear CLR 64 59     84%     30.01 29.9      
Jun 16 21:53 SE 7 10 Clear CLR 66 59     78%     29.99 29.87      
Jun 16 20:53 ESE 7 10 Clear CLR 70 58     66%     29.97 29.85      
Jun 16 19:53 E 9 10 Clear CLR 73 57     57%   73 29.97 29.84      
Jun 16 18:53 ESE 9 10 Clear CLR 75 56     52%   75 29.95 29.83      
Jun 16 17:53 Calm 10 Clear CLR 77 57     50%   77 29.95 29.82      
Jun 16 16:53 Calm 10 Clear CLR 78 59     52%   78 29.97 29.83      
Jun 16 15:53 NE 5 10 Clear CLR 76 59     56%   76 29.98 29.85      
Jun 16 14:53 Calm 10 Mostly Clear FEW026 73 60     64%   73 29.99 29.86      
Jun 16 13:53 W 6 10 Mostly Clear FEW023 71 60     68%   71 30 29.87      
Jun 16 12:53 NNW 7 10 Clear CLR 71 59     66%   71 30.01 29.88      
Jun 16 11:53 3 10 Mostly Clear FEW100 68 58     70%     30.02 29.91      
Jun 16 10:53 WSW 5 10 Cloudy OVC100 64 58     81%     30.04 29.93      
Jun 16 09:53 NW 7 10 Cloudy FEW018 BKN080 OVC095 63 57     81%     30.04 29.92      
Jun 16 08:53 WNW 10 10 Cloudy OVC120 61 56     83%     29.98 29.85      
Jun 16 07:53 W 7 10 Mostly Clear FEW120 60 56     86%     29.97 29.83      
Jun 16 06:53 W 6 10 Clear CLR 59 56     90%     29.97 29.85     0
Jun 16 05:53 NNE 6 10 Partly Cloudy FEW075 SCT110 60 56     86%     29.96 29.83 0    
Jun 16 04:53 Calm 10 Cloudy OVC100 60 56     86%     29.97 29.83 0    
Jun 16 03:53 Calm 10 Light Rain FEW027 BKN090 BKN110 60 55     83%     29.94 29.79 0 0  
Jun 16 02:53 N 17 10 Light Rain FEW055 OVC090 62 54     75%     29.96 29.81 0    
May 15 09:53   10 Partly Cloudy SCT026 70 54     57%     30.07 29.94      
May 15 05:53 NE 9 10 Mostly Cloudy BKN019 64 56     75%     30 29.83      
May 14 15:53 W 8 10 Clear CLR 90 38     16%   86 29.92 29.76      
May 14 03:53 SE 15 10 Clear CLR 63 60     90%     29.94 29.77      
May 13 16:53 SSW 17 10 Clear CLR 93        %     29.89 29.71      
May 13 01:53 S 17 10 Clear CLR 76 56     50%   76 29.94 29.75      
May 12 17:53 SSW 16 10 Clear CLR 95        %     29.83 29.64      
May 11 19:53 SW 21 10 Clear and Windy CLR 91 23     8%   86 29.7 29.52      
Jun 12 03:53 SSE 14 10 Clear CLR 73 63     71%   73 29.89 29.69      
Jun 11 22:53 SSE 20 10 Clear and Windy CLR 82 62     51%   83 29.86 29.67      
Jun 11 20:53 SSE 20 10 Clear and Windy   87 61     42%   87 29.81 29.63      
Jun 11 07:53 S 17 10 Clear CLR 70 62     76%     29.85 29.67      
Jun 10 14:53 S 22 10 Clear and Windy CLR 97 51     21%   94   29.59      
Jun 10 10:53   10 Clear CLR 84 59     43%   84 29.83 29.65      
Jun 08 22:53 S 13 10 Clear CLR 59 53     81%     29.94 29.81      
Jun 08 14:53 S 16 10 Clear CLR 87 56     35%   86 29.97 29.81      
Jun 08 13:53 SSW 10 10 Clear CLR 86 56     36%   85 30.01 29.85      
Jun 07 11:53 SE 8 10 Clear CLR 77 57     50%   77 30.16 30.01      
Jun 05 20:53 ENE 9 10 Clear CLR 73 51     46%   72 30 29.85      
Jun 05 18:53 NE 11 10 Clear CLR 84 48     29%   82   29.81